QPF
0.01 0.01 0.01 0.00 0.00 0.00 0.01 0.01 0.01 0.00 0.00 0.00 0.00 0.01 0.01 0.01 0.01 0.01 0.01 0.01 0.03 0.03 0.02 0.01 0.00 0.00 0.01 0.01 0.00 0.00 0.00 0.00 0.00 0.00 0.00 0.00 0.00 0.00 0.00 0.00 0.00 0.00 0.00 0.01
0.00 0.00 0.00 0.00 0.00 0.00 0.00 0.01 0.01 0.00 0.00 0.00 0.00 0.00 0.00 0.01 0.01 0.01 0.01 0.01 0.02 0.03 0.03 0.02 0.01 0.00 0.01 0.01 0.00 0.00 0.00 0.00 0.00 0.00 0.00 0.00 0.00 0.00 0.00 0.00 0.00 0.00 0.00 0.01
0.01 0.00 0.01 0.01 0.00 0.00 0.00 0.00 0.00 0.00 0.00 0.00 0.00 0.00 0.00 0.00 0.01 0.01 0.01 0.01 0.01 0.01 0.02 0.02 0.01 0.01 0.01 0.01 0.00 0.01 0.00 0.00 0.00 0.00 0.00 0.00 0.00 0.00 0.00 0.00 0.00 0.00 0.00 0.00
0.02 0.01 0.01 0.01 0.00 0.00 0.00 0.00 0.00 0.00 0.00 0.00 0.00 0.00 0.00 0.00 0.01 0.01 0.01 0.01 0.01 0.01 0.01 0.02 0.02 0.02 0.02 0.02 0.01 0.01 0.01 0.00 0.01 0.01 0.00 0.00 0.00 0.00 0.00 0.00 0.00 0.00 0.00 0.00
0.03 0.02 0.01 0.00 0.00 0.00 0.00 0.00 0.00 0.00 0.00 0.00 0.00 0.00 0.00 0.00 0.00 0.01 0.01 0.01 0.01 0.01 0.01 0.01 0.02 0.03 0.03 0.02 0.02 0.01 0.01 0.01 0.01 0.01 0.01 0.01 0.01 0.00 0.00 0.00 0.01 0.00 0.00 0.00
0.04 0.03 0.01 0.01 0.00 0.00 0.00 0.00 0.00 0.00 0.00 0.00 0.00 0.00 0.00 0.00 0.00 0.01 0.01 0.01 0.01 0.01 0.01 0.01 0.01 0.02 0.02 0.02 0.02 0.01 0.02 0.01 0.01 0.01 0.02 0.01 0.01 0.01 0.01 0.01 0.01 0.01 0.01 0.01
0.03 0.02 0.01 0.00 0.00 0.00 0.01 0.01 0.00 0.00 0.00 0.00 0.00 0.01 0.01 0.01 0.01 0.01 0.01 0.01 0.01 0.02 0.02 0.02 0.01 0.01 0.01 0.02 0.02 0.01 0.01 0.01 0.01 0.02 0.02 0.02 0.01 0.01 0.01 0.01 0.01 0.01 0.00 0.00
0.02 0.02 0.01 0.00 0.00 0.01 0.01 0.00 0.00 0.00 0.01 0.00 0.00 0.00 0.00 0.01 0.01 0.01 0.01 0.02 0.02 0.02 0.02 0.02 0.02 0.01 0.01 0.01 0.02 0.02 0.01 0.01 0.01 0.02 0.02 0.01 0.01 0.01 0.01 0.01 0.01 0.00 0.00 0.00
0.02 0.02 0.01 0.01 0.01 0.01 0.01 0.01 0.01 0.01 0.01 0.00 0.00 0.00 0.00 0.01 0.01 0.01 0.01 0.02 0.02 0.02 0.02 0.01 0.01 0.01 0.01 0.01 0.01 0.01 0.01 0.01 0.01 0.01 0.01 0.01 0.01 0.01 0.01 0.01 0.00 0.00 0.00 0.00
0.01 0.01 0.01 0.01 0.01 0.01 0.01 0.01 0.00 0.01 0.00 0.00 0.00 0.00 0.00 0.00 0.01 0.01 0.01 0.01 0.01 0.01 0.01 0.01 0.01 0.01 0.01 0.01 0.01 0.01 0.01 0.01 0.01 0.01 0.01 0.00 0.00 0.01 0.01 0.01 0.00 0.00 0.00 0.00
0.02 0.01 0.01 0.01 0.00 0.00 0.01 0.01 0.00 0.00 0.00 0.00 0.00 0.00 0.00 0.00 0.01 0.01 0.00 0.00 0.00 0.00 0.01 0.01 0.01 0.00 0.01 0.01 0.01 0.01 0.01 0.01 0.01 0.01 0.01 0.01 0.01 0.01 0.01 0.01 0.01 0.01 0.01 0.01
0.02 0.01 0.01 0.01 0.00 0.00 0.01 0.00 0.00 0.00 0.00 0.00 0.00 0.00 0.00 0.00 0.00 0.01 0.00 0.00 0.00 0.00 0.00 0.01 0.01 0.01 0.01 0.01 0.01 0.01 0.01 0.01 0.01 0.01 0.02 0.02 0.01 0.01 0.00 0.00 0.01 0.01 0.01 0.01
0.02 0.01 0.01 0.01 0.01 0.01 0.01 0.01 0.00 0.00 0.00 0.00 0.00 0.00 0.00 0.00 0.00 0.01 0.00 0.00 0.00 0.00 0.00 0.01 0.01 0.01 0.01 0.01 0.01 0.01 0.01 0.02 0.02 0.02 0.02 0.02 0.02 0.01 0.01 0.01 0.01 0.01 0.01 0.02
0.01 0.02 0.02 0.02 0.02 0.02 0.02 0.01 0.01 0.01 0.01 0.01 0.00 0.00 0.01 0.00 0.00 0.00 0.00 0.00 0.00 0.00 0.00 0.01 0.01 0.01 0.01 0.01 0.01 0.01 0.01 0.02 0.02 0.02 0.02 0.02 0.03 0.03 0.02 0.02 0.02 0.01 0.01 0.01
0.02 0.02 0.02 0.02 0.02 0.01 0.01 0.02 0.01 0.01 0.01 0.01 0.01 0.01 0.00 0.00 0.00 0.00 0.00 0.00 0.00 0.00 0.00 0.00 0.01 0.01 0.01 0.01 0.01 0.01 0.01 0.02 0.02 0.02 0.02 0.02 0.02 0.03 0.03 0.02 0.02 0.02 0.01 0.01
0.01 0.01 0.01 0.01 0.01 0.01 0.01 0.01 0.01 0.01 0.01 0.01 0.01 0.01 0.01 0.00 0.00 0.00 0.00 0.00 0.00 0.00 0.00 0.00 0.00 0.01 0.01 0.01 0.01 0.01 0.01 0.02 0.03 0.03 0.03 0.03 0.03 0.03 0.03 0.03 0.03 0.02 0.02 0.02
0.01 0.01 0.01 0.01 0.01 0.01 0.01 0.01 0.01 0.00 0.00 0.00 0.00 0.00 0.00 0.00 0.00 0.00 0.00 0.00 0.00 0.00 0.00 0.00 0.00 0.00 0.01 0.01 0.01 0.01 0.01 0.02 0.02 0.02 0.02 0.03 0.03 0.03 0.03 0.03 0.03 0.03 0.03 0.03
0.01 0.01 0.01 0.01 0.01 0.01 0.01 0.01 0.00 0.00 0.00 0.00 0.00 0.00 0.00 0.00 0.00 0.00 0.00 0.00 0.00 0.00 0.00 0.00 0.00 0.00 0.00 0.00 0.01 0.01 0.01 0.01 0.01 0.02 0.02 0.03 0.03 0.03 0.03 0.03 0.03 0.03 0.02 0.02
0.01 0.01 0.01 0.01 0.00 0.00 0.00 0.00 0.00 0.00 0.00 0.00 0.00 0.00 0.00 0.00 0.00 0.00 0.00 0.00 0.00 0.00 0.00 0.00 0.00 0.00 0.00 0.00 0.01 0.01 0.01 0.01 0.01 0.01 0.01 0.02 0.02 0.02 0.02 0.02 0.02 0.02 0.02 0.01
0.01 0.01 0.01 0.00 0.00 0.00 0.00 0.00 0.00 0.00 0.00 0.00 0.00 0.00 0.00 0.00 0.00 0.00 0.00 0.00 0.00 0.00 0.00 0.00 0.00 0.00 0.00 0.00 0.01 0.01 0.01 0.01 0.01 0.01 0.01 0.01 0.01 0.01 0.01 0.01 0.01 0.01 0.01 0.01
0.01 0.01 0.00 0.00 0.00 0.00 0.00 0.00 0.00 0.00 0.00 0.00 0.00 0.00 0.00 0.00 0.00 0.00 0.00 0.00 0.00 0.00 0.00 0.00 0.00 0.00 0.00 0.01 0.01 0.01 0.01 0.01 0.01 0.01 0.01 0.01 0.01 0.01 0.01 0.01 0.01 0.01 0.01 0.01
0.01 0.00 0.00 0.00 0.00 0.00 0.00 0.00 0.00 0.00 0.00 0.00 0.00 0.00 0.00 0.00 0.00 0.00 0.00 0.00 0.00 0.00 0.00 0.00 0.00 0.00 0.01 0.01 0.01 0.01 0.01 0.01 0.01 0.01 0.01 0.01 0.01 0.01 0.01 0.01 0.01 0.01 0.01 0.01
0.00 0.00 0.00 0.00 0.01 0.01 0.00 0.00 0.00 0.00 0.00 0.00 0.00 0.00 0.00 0.00 0.00 0.00 0.00 0.00 0.00 0.00 0.00 0.00 0.00 0.01 0.01 0.01 0.01 0.01 0.01 0.01 0.01 0.01 0.01 0.01 0.01 0.01 0.01 0.01 0.01 0.01 0.01 0.01
0.00 0.00 0.00 0.00 0.00 0.01 0.01 0.01 0.00 0.00 0.00 0.00 0.00 0.00 0.00 0.00 0.00 0.00 0.00 0.00 0.00 0.00 0.01 0.01 0.01 0.01 0.01 0.01 0.01 0.01 0.01 0.01 0.01 0.01 0.01 0.01 0.01 0.01 0.01 0.01 0.01 0.01 0.00 0.01
0.00 0.00 0.00 0.00 0.01 0.01 0.01 0.00 0.00 0.00 0.00 0.00 0.00 0.00 0.01 0.01 0.00 0.00 0.00 0.00 0.00 0.00 0.00 0.00 0.01 0.01 0.01 0.01 0.01 0.01 0.01 0.01 0.01 0.01 0.01 0.01 0.01 0.01 0.01 0.01 0.01 0.01 0.01 0.01
0.01 0.01 0.01 0.01 0.01 0.01 0.01 0.00 0.00 0.00 0.00 0.00 0.01 0.01 0.01 0.01 0.01 0.01 0.01 0.01 0.01 0.00 0.00 0.00 0.00 0.00 0.01 0.01 0.01 0.01 0.01 0.01 0.01 0.01 0.01 0.01 0.01 0.01 0.00 0.00 0.00 0.00 0.01 0.01
0.01 0.01 0.01 0.01 0.01 0.01 0.01 0.01 0.01 0.01 0.01 0.01 0.01 0.01 0.01 0.01 0.01 0.01 0.01 0.01 0.01 0.00 0.00 0.00 0.00 0.01 0.01 0.01 0.01 0.01 0.01 0.01 0.01 0.01 0.01 0.01 0.01 0.01 0.01 0.01 0.00 0.01 0.01 0.01
MSLP
1020.21 1020.20 1020.12 1019.89 1019.45 1018.78 1017.90 1016.84 1015.68 1014.52 1013.46 1012.58 1011.96 1011.61 1011.54 1011.69 1012.00 1012.40 1012.83 1013.22 1013.55 1013.81 1014.03 1014.22 1014.43 1014.67 1014.97 1015.32 1015.71 1016.10 1016.47 1016.79 1017.05 1017.25 1017.39 1017.49 1017.57 1017.65 1017.73 1017.80 1017.86 1017.87 1017.81 1017.66
1019.44 1019.19 1018.89 1018.47 1017.91 1017.19 1016.32 1015.33 1014.29 1013.27 1012.34 1011.58 1011.04 1010.72 1010.63 1010.73 1010.96 1011.28 1011.63 1011.97 1012.28 1012.56 1012.83 1013.09 1013.37 1013.70 1014.07 1014.47 1014.89 1015.30 1015.69 1016.02 1016.29 1016.51 1016.67 1016.81 1016.92 1017.04 1017.15 1017.26 1017.33 1017.36 1017.31 1017.16
1018.54 1018.05 1017.51 1016.91 1016.21 1015.42 1014.54 1013.61 1012.66 1011.77 1010.98 1010.34 1009.88 1009.62 1009.53 1009.61 1009.81 1010.08 1010.39 1010.72 1011.04 1011.36 1011.68 1012.02 1012.38 1012.77 1013.20 1013.64 1014.08 1014.51 1014.89 1015.23 1015.51 1015.73 1015.92 1016.08 1016.23 1016.38 1016.52 1016.65 1016.75 1016.79 1016.75 1016.61
1017.58 1016.87 1016.13 1015.35 1014.53 1013.67 1012.78 1011.88 1011.03 1010.24 1009.56 1009.02 1008.65 1008.44 1008.39 1008.47 1008.65 1008.91 1009.21 1009.54 1009.90 1010.26 1010.64 1011.04 1011.47 1011.92 1012.38 1012.85 1013.30 1013.72 1014.10 1014.43 1014.71 1014.94 1015.15 1015.33 1015.51 1015.69 1015.87 1016.02 1016.14 1016.19 1016.16 1016.03
1016.60 1015.73 1014.84 1013.94 1013.03 1012.12 1011.23 1010.38 1009.59 1008.89 1008.30 1007.85 1007.54 1007.38 1007.35 1007.43 1007.61 1007.86 1008.17 1008.51 1008.89 1009.29 1009.72 1010.17 1010.64 1011.13 1011.61 1012.09 1012.54 1012.95 1013.31 1013.63 1013.91 1014.15 1014.37 1014.58 1014.79 1015.00 1015.20 1015.38 1015.51 1015.58 1015.57 1015.45
1015.61 1014.65 1013.69 1012.73 1011.79 1010.89 1010.03 1009.22 1008.50 1007.87 1007.36 1006.96 1006.69 1006.55 1006.52 1006.59 1006.76 1006.99 1007.29 1007.64 1008.03 1008.46 1008.91 1009.39 1009.88 1010.38 1010.87 1011.34 1011.78 1012.17 1012.52 1012.83 1013.11 1013.36 1013.60 1013.84 1014.07 1014.31 1014.53 1014.73 1014.89 1014.97 1014.97 1014.88
1014.56 1013.60 1012.64 1011.70 1010.81 1009.95 1009.16 1008.43 1007.78 1007.22 1006.75 1006.39 1006.14 1005.99 1005.94 1005.98 1006.11 1006.31 1006.58 1006.91 1007.29 1007.72 1008.17 1008.66 1009.15 1009.64 1010.12 1010.58 1011.00 1011.38 1011.72 1012.03 1012.31 1012.58 1012.84 1013.10 1013.36 1013.62 1013.87 1014.09 1014.26 1014.37 1014.39 1014.31
1013.35 1012.45 1011.57 1010.73 1009.94 1009.19 1008.51 1007.88 1007.31 1006.82 1006.40 1006.06 1005.80 1005.63 1005.54 1005.53 1005.60 1005.75 1005.98 1006.27 1006.62 1007.02 1007.46 1007.93 1008.40 1008.88 1009.34 1009.78 1010.18 1010.55 1010.89 1011.20 1011.50 1011.78 1012.07 1012.35 1012.64 1012.92 1013.19 1013.43 1013.62 1013.75 1013.79 1013.74
1011.89 1011.10 1010.35 1009.65 1009.01 1008.42 1007.87 1007.36 1006.90 1006.48 1006.11 1005.79 1005.53 1005.32 1005.19 1005.13 1005.14 1005.24 1005.40 1005.65 1005.95 1006.32 1006.72 1007.16 1007.60 1008.06 1008.49 1008.91 1009.31 1009.67 1010.02 1010.34 1010.66 1010.97 1011.27 1011.59 1011.90 1012.21 1012.49 1012.75 1012.96 1013.10 1013.17 1013.15
1010.11 1009.44 1008.85 1008.32 1007.85 1007.42 1007.03 1006.66 1006.32 1005.98 1005.67 1005.38 1005.12 1004.90 1004.74 1004.63 1004.60 1004.65 1004.76 1004.96 1005.22 1005.55 1005.92 1006.32 1006.74 1007.16 1007.59 1007.99 1008.38 1008.75 1009.11 1009.45 1009.79 1010.13 1010.46 1010.80 1011.13 1011.46 1011.76 1012.03 1012.25 1012.42 1012.51 1012.52
1008.04 1007.50 1007.04 1006.67 1006.36 1006.09 1005.84 1005.61 1005.38 1005.14 1004.89 1004.65 1004.42 1004.21 1004.04 1003.93 1003.87 1003.89 1003.99 1004.15 1004.39 1004.69 1005.03 1005.41 1005.80 1006.21 1006.62 1007.02 1007.42 1007.80 1008.17 1008.54 1008.91 1009.27 1009.63 1009.98 1010.33 1010.67 1010.98 1011.26 1011.50 1011.68 1011.80 1011.85
1005.83 1005.36 1005.01 1004.75 1004.55 1004.40 1004.27 1004.15 1004.01 1003.86 1003.68 1003.50 1003.32 1003.15 1003.02 1002.93 1002.90 1002.93 1003.03 1003.20 1003.44 1003.73 1004.06 1004.43 1004.82 1005.22 1005.63 1006.03 1006.44 1006.84 1007.23 1007.63 1008.02 1008.40 1008.78 1009.16 1009.52 1009.86 1010.17 1010.46 1010.71 1010.90 1011.05 1011.13
1003.67 1003.25 1002.94 1002.72 1002.59 1002.50 1002.43 1002.37 1002.30 1002.21 1002.10 1001.99 1001.87 1001.77 1001.70 1001.67 1001.69 1001.78 1001.92 1002.12 1002.39 1002.69 1003.04 1003.41 1003.81 1004.21 1004.63 1005.05 1005.47 1005.89 1006.31 1006.73 1007.15 1007.55 1007.95 1008.33 1008.70 1009.03 1009.35 1009.63 1009.88 1010.09 1010.25 1010.36
1001.83 1001.38 1001.06 1000.83 1000.69 1000.59 1000.53 1000.48 1000.43 1000.37 1000.31 1000.25 1000.21 1000.18 1000.19 1000.24 1000.34 1000.49 1000.70 1000.96 1001.27 1001.61 1001.99 1002.38 1002.80 1003.22 1003.66 1004.09 1004.54 1004.98 1005.43 1005.87 1006.31 1006.74 1007.14 1007.53 1007.89 1008.22 1008.52 1008.79 1009.03 1009.24 1009.42 1009.54
1000.47 999.98 999.59 999.30 999.09 998.93 998.81 998.71 998.64 998.57 998.53 998.50 998.51 998.55 998.63 998.76 998.95 999.18 999.46 999.79 1000.15 1000.54 1000.95 1001.37 1001.81 1002.26 1002.71 1003.18 1003.65 1004.12 1004.59 1005.06 1005.51 1005.95 1006.36 1006.74 1007.10 1007.41 1007.70 1007.95 1008.18 1008.38 1008.55 1008.69
999.71 999.15 998.69 998.30 997.97 997.71 997.48 997.30 997.15 997.04 996.98 996.95 996.98 997.06 997.20 997.40 997.65 997.95 998.30 998.68 999.09 999.52 999.96 1000.41 1000.87 1001.34 1001.82 1002.30 1002.79 1003.29 1003.78 1004.27 1004.74 1005.19 1005.60 1005.98 1006.32 1006.61 1006.88 1007.10 1007.31 1007.49 1007.64 1007.78
999.52 998.91 998.37 997.87 997.42 997.03 996.68 996.38 996.14 995.95 995.83 995.78 995.80 995.89 996.06 996.29 996.58 996.92 997.30 997.71 998.15 998.59 999.05 999.52 999.99 1000.48 1000.97 1001.47 1001.98 1002.49 1003.00 1003.50 1003.98 1004.43 1004.84 1005.21 1005.53 1005.80 1006.04 1006.23 1006.40 1006.55 1006.69 1006.81
999.79 999.15 998.55 997.96 997.41 996.90 996.43 996.01 995.66 995.39 995.19 995.09 995.07 995.14 995.29 995.52 995.81 996.15 996.53 996.94 997.37 997.82 998.27 998.73 999.20 999.68 1000.17 1000.67 1001.19 1001.70 1002.22 1002.72 1003.20 1003.65 1004.05 1004.40 1004.70 1004.95 1005.15 1005.32 1005.46 1005.57 1005.68 1005.77
1000.32 999.70 999.07 998.44 997.82 997.22 996.65 996.15 995.70 995.34 995.08 994.90 994.83 994.86 994.97 995.16 995.41 995.72 996.07 996.44 996.83 997.24 997.66 998.08 998.52 998.98 999.45 999.93 1000.43 1000.94 1001.44 1001.93 1002.39 1002.83 1003.21 1003.54 1003.82 1004.04 1004.21 1004.34 1004.44 1004.53 1004.60 1004.67
1000.92 1000.35 999.74 999.11 998.47 997.83 997.21 996.65 996.15 995.73 995.40 995.18 995.05 995.02 995.07 995.20 995.39 995.64 995.91 996.22 996.55 996.89 997.24 997.61 998.00 998.41 998.83 999.28 999.74 1000.21 1000.67 1001.13 1001.57 1001.96 1002.32 1002.62 1002.86 1003.06 1003.20 1003.30 1003.38 1003.43 1003.48 1003.53
1001.46 1000.97 1000.42 999.82 999.20 998.57 997.96 997.39 996.87 996.43 996.07 995.81 995.64 995.55 995.55 995.61 995.73 995.89 996.08 996.30 996.54 996.79 997.07 997.35 997.66 998.00 998.35 998.74 999.13 999.54 999.95 1000.35 1000.74 1001.09 1001.40 1001.66 1001.87 1002.03 1002.15 1002.23 1002.28 1002.32 1002.35 1002.38
1001.88 1001.48 1001.00 1000.48 999.92 999.34 998.78 998.24 997.75 997.33 996.98 996.70 996.51 996.39 996.33 996.33 996.37 996.44 996.54 996.67 996.80 996.96 997.13 997.33 997.54 997.79 998.05 998.35 998.66 998.99 999.32 999.65 999.96 1000.25 1000.50 1000.71 1000.88 1001.01 1001.10 1001.16 1001.20 1001.23 1001.25 1001.28
1002.21 1001.89 1001.51 1001.07 1000.59 1000.09 999.60 999.14 998.71 998.33 998.02 997.76 997.56 997.42 997.33 997.27 997.24 997.24 997.25 997.27 997.31 997.36 997.43 997.52 997.64 997.78 997.95 998.14 998.36 998.59 998.82 999.06 999.29 999.49 999.68 999.83 999.96 1000.05 1000.12 1000.16 1000.19 1000.22 1000.24 1000.27
1002.53 1002.27 1001.96 1001.61 1001.22 1000.82 1000.42 1000.04 999.69 999.38 999.12 998.89 998.71 998.57 998.45 998.35 998.26 998.18 998.11 998.05 997.99 997.95 997.92 997.91 997.93 997.97 998.04 998.13 998.24 998.36 998.50 998.64 998.77 998.89 999.00 999.09 999.17 999.22 999.26 999.29 999.32 999.34 999.36 999.40
1002.90 1002.69 1002.44 1002.16 1001.85 1001.54 1001.23 1000.94 1000.67 1000.43 1000.22 1000.03 999.87 999.72 999.59 999.45 999.32 999.18 999.04 998.90 998.77 998.64 998.53 998.44 998.36 998.31 998.29 998.28 998.30 998.33 998.36 998.40 998.44 998.48 998.51 998.54 998.56 998.57 998.58 998.59 998.61 998.62 998.65 998.68
1003.38 1003.19 1002.98 1002.74 1002.50 1002.26 1002.02 1001.80 1001.60 1001.42 1001.25 1001.09 1000.95 1000.80 1000.65 1000.48 1000.31 1000.12 999.93 999.73 999.53 999.34 999.17 999.01 998.87 998.75 998.65 998.57 998.51 998.45 998.40 998.35 998.31 998.27 998.22 998.18 998.15 998.12 998.09 998.08 998.08 998.08 998.10 998.13
1003.96 1003.78 1003.58 1003.37 1003.16 1002.97 1002.78 1002.60 1002.44 1002.29 1002.15 1002.01 1001.86 1001.70 1001.53 1001.33 1001.12 1000.90 1000.66 1000.42 1000.18 999.95 999.74 999.54 999.36 999.19 999.05 998.92 998.79 998.67 998.56 998.45 998.33 998.22 998.11 998.01 997.92 997.84 997.78 997.73 997.70 997.68 997.68 997.69
Thickness
5452 5453 5450 5453 5454 5449 5451 5466 5473 5487 5486 5495 5492 5486 5483 5481 5478 5475 5473 5471 5469 5467 5465 5463 5461 5459 5457 5456 5454 5452 5452 5451 5451 5450 5448 5447 5446 5445 5444 5443 5442 5441 5441 5440
5440 5443 5440 5440 5449 5450 5450 5455 5460 5465 5473 5483 5478 5475 5472 5472 5469 5467 5465 5463 5461 5458 5455 5454 5452 5450 5448 5446 5444 5442 5442 5441 5440 5439 5438 5437 5436 5435 5434 5433 5432 5431 5431 5430
5445 5431 5428 5446 5458 5452 5451 5455 5456 5461 5472 5468 5464 5463 5461 5460 5458 5456 5455 5453 5450 5449 5446 5445 5443 5441 5439 5437 5435 5433 5432 5431 5430 5429 5427 5426 5426 5425 5424 5423 5423 5422 5421 5420
5429 5425 5431 5465 5453 5451 5449 5452 5451 5453 5456 5454 5453 5450 5448 5447 5446 5446 5443 5441 5439 5438 5436 5435 5433 5430 5429 5427 5426 5424 5423 5421 5420 5419 5418 5417 5416 5416 5415 5414 5413 5412 5411 5410
5418 5426 5442 5452 5445 5439 5438 5445 5446 5442 5442 5442 5438 5438 5442 5437 5434 5433 5432 5429 5428 5426 5424 5423 5422 5421 5419 5418 5417 5415 5414 5412 5411 5409 5408 5408 5407 5406 5406 5404 5403 5402 5401 5401
5408 5420 5434 5453 5435 5427 5429 5439 5438 5432 5431 5430 5428 5439 5443 5430 5424 5422 5420 5418 5416 5415 5414 5413 5412 5410 5410 5409 5408 5407 5406 5404 5402 5400 5399 5399 5398 5397 5396 5395 5394 5393 5392 5391
5403 5412 5431 5432 5419 5417 5427 5439 5427 5423 5421 5419 5422 5426 5422 5416 5413 5411 5409 5408 5406 5405 5404 5403 5402 5400 5400 5400 5399 5398 5396 5394 5393 5392 5391 5390 5389 5388 5387 5386 5385 5384 5383 5382
5398 5402 5421 5416 5410 5417 5425 5419 5415 5413 5412 5410 5408 5406 5405 5404 5403 5400 5398 5397 5396 5395 5394 5393 5392 5391 5391 5391 5390 5388 5386 5385 5384 5383 5382 5381 5380 5380 5379 5377 5377 5376 5375 5374
5404 5416 5412 5403 5405 5405 5403 5403 5404 5404 5402 5399 5396 5396 5395 5394 5393 5391 5389 5388 5386 5385 5384 5383 5382 5382 5382 5382 5380 5378 5377 5376 5375 5374 5373 5372 5372 5371 5370 5369 5368 5367 5366 5365
5388 5399 5398 5394 5393 5393 5392 5392 5393 5392 5390 5388 5387 5386 5384 5383 5383 5381 5379 5378 5377 5376 5375 5374 5373 5372 5372 5371 5370 5369 5369 5368 5366 5365 5365 5364 5363 5362 5361 5360 5359 5358 5357 5356
5383 5390 5387 5388 5387 5387 5385 5383 5382 5381 5380 5377 5377 5376 5375 5374 5373 5371 5370 5369 5367 5367 5366 5365 5364 5363 5362 5361 5360 5360 5360 5359 5358 5357 5356 5356 5354 5353 5352 5351 5350 5348 5347 5346
5393 5391 5387 5390 5385 5380 5378 5376 5375 5373 5371 5369 5367 5366 5366 5365 5363 5362 5361 5360 5359 5358 5357 5356 5355 5354 5353 5352 5351 5351 5351 5350 5349 5348 5347 5347 5346 5344 5341 5340 5339 5338 5337 5336
5378 5377 5376 5376 5374 5372 5370 5369 5367 5365 5363 5362 5361 5359 5357 5357 5356 5354 5353 5352 5351 5350 5349 5348 5347 5346 5345 5343 5342 5342 5342 5341 5341 5340 5339 5338 5337 5336 5335 5332 5330 5329 5328 5328
5363 5363 5365 5367 5365 5362 5360 5359 5357 5356 5354 5354 5353 5351 5349 5349 5348 5347 5346 5345 5343 5342 5341 5340 5339 5338 5337 5335 5334 5333 5333 5333 5332 5331 5331 5330 5328 5327 5326 5325 5324 5323 5321 5319
5356 5354 5356 5356 5354 5352 5351 5349 5348 5348 5347 5346 5345 5343 5342 5342 5341 5340 5339 5337 5336 5335 5334 5332 5331 5330 5329 5327 5326 5325 5325 5325 5323 5323 5322 5321 5320 5318 5317 5316 5315 5315 5314 5312
5346 5345 5345 5345 5345 5344 5342 5341 5341 5341 5340 5339 5338 5336 5335 5334 5333 5332 5331 5330 5329 5329 5327 5326 5325 5324 5321 5320 5319 5318 5318 5316 5315 5315 5314 5312 5311 5310 5309 5308 5307 5307 5306 5305
5337 5340 5340 5339 5339 5338 5336 5335 5334 5334 5333 5331 5330 5328 5326 5325 5324 5324 5323 5322 5321 5321 5320 5319 5318 5316 5314 5313 5312 5312 5311 5310 5308 5307 5306 5305 5304 5303 5302 5300 5299 5299 5298 5297
5331 5332 5332 5331 5330 5329 5327 5326 5325 5324 5324 5323 5321 5319 5318 5318 5318 5317 5315 5314 5313 5312 5312 5312 5311 5309 5308 5307 5306 5305 5304 5303 5301 5300 5299 5297 5296 5295 5294 5293 5292 5291 5290 5289
5322 5322 5322 5321 5320 5319 5318 5318 5317 5316 5315 5313 5312 5311 5311 5310 5309 5309 5307 5306 5306 5306 5306 5305 5304 5303 5302 5300 5299 5298 5297 5296 5295 5294 5292 5291 5290 5288 5287 5286 5285 5284 5283 5282
5313 5313 5313 5312 5310 5309 5309 5309 5308 5307 5306 5304 5303 5302 5302 5302 5301 5300 5299 5300 5301 5301 5300 5298 5297 5296 5296 5295 5293 5292 5291 5290 5289 5288 5287 5286 5285 5283 5282 5281 5280 5278 5277 5276
5305 5304 5304 5303 5302 5302 5301 5301 5300 5299 5298 5296 5296 5296 5296 5295 5294 5293 5293 5295 5295 5293 5292 5292 5292 5291 5290 5289 5287 5287 5286 5285 5284 5283 5282 5281 5279 5278 5277 5276 5274 5273 5272 5271
5295 5295 5295 5295 5295 5295 5294 5293 5293 5292 5290 5289 5289 5288 5288 5288 5287 5287 5287 5289 5290 5288 5287 5287 5286 5285 5285 5284 5282 5281 5281 5279 5278 5278 5276 5275 5274 5273 5272 5270 5269 5268 5267 5266
5287 5287 5287 5287 5287 5287 5286 5286 5285 5285 5284 5283 5283 5283 5283 5283 5283 5283 5284 5283 5282 5282 5281 5281 5281 5280 5280 5278 5278 5277 5275 5274 5273 5272 5271 5270 5269 5268 5267 5265 5264 5263 5262 5261
5280 5280 5280 5280 5279 5279 5280 5281 5279 5279 5278 5277 5277 5276 5276 5276 5277 5277 5277 5277 5276 5276 5275 5275 5275 5275 5275 5273 5272 5272 5271 5269 5268 5267 5266 5265 5264 5263 5262 5260 5259 5259 5258 5257
5274 5273 5273 5272 5274 5276 5276 5274 5272 5272 5271 5271 5271 5270 5270 5270 5270 5271 5270 5269 5270 5270 5269 5269 5270 5270 5269 5268 5267 5266 5265 5264 5263 5262 5261 5260 5259 5258 5257 5256 5255 5254 5253 5253
5268 5269 5269 5268 5269 5269 5269 5269 5268 5268 5267 5267 5266 5265 5264 5264 5263 5263 5263 5263 5263 5263 5263 5263 5263 5263 5262 5262 5261 5260 5259 5258 5257 5257 5256 5255 5254 5253 5252 5252 5251 5251 5250 5249
5263 5263 5263 5264 5264 5263 5263 5263 5263 5263 5262 5262 5262 5261 5260 5258 5258 5257 5257 5257 5257 5257 5257 5257 5257 5257 5256 5256 5255 5254 5254 5253 5252 5252 5251 5250 5249 5249 5248 5248 5247 5247 5246 5246